ROMMA est une association bénévole à but non lucratif. Votre soutien est indispensable : ADHERER à ROMMA ou FAIRE un DON

Chambon - (38, Isère)

Oisans (2460 m)   Longitude: 06° 10' 42" E   Latitude: 45° 01' 32" N Station partenaire n°803
 

Détail journalier du     <<     >>

Température Humidité Vent Dir Rafale Dir. rafale Neige 1 Neige 2
Heure (°C) (%) (km/h) (km/h) (cm) (cm)
01:00 2.8564OSO8OSO08
02:00 3.0535OSO14NNO08
03:00 2.9493S11S08
04:00 3.3462SE8SO08
05:00 2.7513SE8SE08
06:00 2.7523NNE10OSO08
07:00 1.9603OSO11ONO08
08:00 3.3639SO28SO08
09:00 3.6659SSO25SSO08
10:00 4.2648SO22SO08
11:00 5.4595ESE16OSO08
12:00 5.9615ENE18NNO07
13:00 5.8655O15O07
14:00 6.5686O17O06
15:00 6.5719O23O06
16:00 6.6738O21O05
17:00 5.0795SE24SO06
18:00 4.9805SE44SSO05
19:00 3.4914SE32SE05
20:00 3.5916S22S05
21:00 3.3929SSE44SSO05
22:00 3.59113SSO39SSO05
23:00 2.8968SO24SO04
minuit 2.5995O15O04

Graphique du 17-10-2019

 

Serveur OMMA